Home   Weather   Township of Fairfield   Past weeks
Flag for USA

Past Weather in Township of Fairfield, Ohio, USA — Yesterday and Last 2 Weeks

Now
86 °F

Scattered clouds.


Feels Like: 86 °F
Forecast: 89 / 65 °F
Wind: 8 mph from Northeast

Location: Akron-Canton Regional Airport

Current Time: Jul 2, 2020 at 1:22:48 pm

Latest Report: Jul 2, 2020 at 11:51 am


Visibility: 10 mi

Pressure: 30.01 "Hg

Humidity: 43%

Dew Point: 61 °F

Location of Township of FairfieldLocation

Past Weather in Township of Fairfield — Graph

°F

Township of Fairfield Temperature Yesterday

Maximum temperature yesterday: 85 °F (at 4:51 pm)
Minimum temperature yesterday: 62 °F (at 4:51 am)
Average temperature yesterday: 75 °F

High & Low Weather Summary for the Past Weeks

 TemperatureHumidityPressure
High89 °F (Jun 21, 1:51 pm)94% (Jun 19, 6:51 am)30.22 "Hg (Jun 19, 6:51 am)
Low58 °F (Jun 25, 5:51 am)33% (Jun 30, 2:51 pm)29.63 "Hg (Jun 23, 4:51 pm)
Average73 °F69%29.93 "Hg
* Reported Jun 17 11:51 am — Jul 2 11:51 am, Township of Fairfield. Weather by CustomWeather, © 2020

Note: Actual official high and low records may vary slightly from our data, if they occured in-between our weather recording intervals... More about our weather records

Township of Fairfield Weather History for the Previous 24 Hours

Scroll right to see more
 ConditionsComfort  
Time TempWeatherWind HumidityBarometerVisibility
11:51 am
Thu, Jul 2
86 °FScattered clouds.8 mph43%30.01 "Hg10 mi
10:51 am83 °FPassing clouds.6 mph53%30.01 "Hg10 mi
9:51 am80 °FPassing clouds.5 mph58%30.01 "Hg10 mi
8:51 am76 °FPassing clouds.7 mph67%30.01 "Hg10 mi
7:51 am72 °FPassing clouds.5 mph73%29.99 "Hg10 mi
6:51 am67 °FPassing clouds.6 mph85%29.99 "Hg10 mi
5:51 am64 °FClear.6 mph87%29.98 "Hg9 mi
4:51 am64 °FClear.8 mph84%29.97 "Hg10 mi
3:51 am65 °FClear.7 mph81%29.96 "Hg10 mi
2:51 am65 °FClear.8 mph81%29.96 "Hg10 mi
1:51 am66 °FClear.8 mph78%29.95 "Hg10 mi
12:51 am67 °FClear.7 mph76%29.96 "Hg10 mi
11:51 pm
Wed, Jul 1
70 °FClear.6 mph68%29.96 "Hg10 mi
10:51 pm72 °FClear.5 mph66%29.96 "Hg10 mi
9:51 pm72 °FClear.7 mph66%29.94 "Hg10 mi
8:51 pm75 °FPassing clouds.7 mph60%29.93 "Hg10 mi
7:51 pm81 °FPassing clouds.13 mph49%29.91 "Hg10 mi
6:51 pm83 °FPassing clouds.13 mph48%29.91 "Hg10 mi
5:51 pm84 °FScattered clouds.9 mph48%29.91 "Hg10 mi
4:51 pm85 °FScattered clouds.13 mph50%29.91 "Hg10 mi
3:51 pm83 °FBroken clouds.9 mph50%29.93 "Hg10 mi
2:51 pm84 °FScattered clouds.6 mph46%29.94 "Hg10 mi
1:51 pm83 °FScattered clouds.8 mph51%29.96 "Hg10 mi
Weather by CustomWeather, © 2020

See weather overview